Regional Weather Roundup
Issued by NWS Midland/Odessa, TX

Home | Current Version | Previous Version | Text Only | Print | Product List | Glossary On
Versions: 1 2 3 4 5 6 7 8 9 10 11 12 13 14 15 16 17 18 19 20 21 22 23 24 25 26 27 28 29 30 31 32 33 34 35 36 37 38 39 40 41 42 43 44 45 46 47 48 49 50
000
ASUS44 KMAF 291110
RWRMAF
MIDLAND AREA WEATHER ROUNDUP
NATIONAL WEATHER SERVICE MIDLAND TX
600 AM CDT TUE JUL 29 2014

...IN SOUTHWEST TEXAS AND SOUTHEAST NEW MEXICO...

CITY           SKY/WX    TMP DP  RH WIND       PRES   REMARKS
ALPINE         CLEAR     68  57  67 SW9       30.29R
ANDREWS        FAIR      72  64  73 E6        30.20R
ARTESIA        CLOUDY    77  63  61 E6        30.20F
BIG SPRING     CLEAR     74  61  63 E9        30.19S
CARLSBAD       PTCLDY    75  61  61 CALM      30.17R
DRYDEN           N/A     78  61  55 NE6       30.10S
FORT STOCKTON  CLEAR     75  58  55 SE9       30.15S
GUAD PASS      CLEAR     68  59  73 NE24      30.29S
HOBBS          NOT AVBL
MARFA          PTCLDY    64  55  72 SW3       30.28S
MIDLAND AIRPK  CLEAR     75  65  69 E5        30.18R
MIDLAND INTL   CLEAR     74  64  71 E8        30.16S
ODESSA         CLEAR     75  64  68 E8        30.17S
PECOS          CLEAR     75  60  58 E10       30.12S
PRESIDIO       FAIR      81  56  41 NE8       30.11S
SEMINOLE       PTCLDY    70  60  70 E6        30.22R
SNYDER         CLEAR     69  58  68 NE8       30.19S
WINK           CLEAR     76  65  68 E7        30.14R
$$
...OTHER STATIONS IN TEXAS...

CITY           SKY/WX    TMP DP  RH WIND       PRES   REMARKS
ABILENE          N/A     74  60  61 MISG      30.16R
AMARILLO       PTCLDY    63  60  90 S12       30.25R
AUSTIN         PTCLDY    72  69  90 CALM      30.07S
BROWNSVILLE    CLEAR     75  74  96 S5        30.03S
CORPUS CHRISTI PTCLDY    72  70  93 CALM      30.05R
DALLAS FTW     MOCLDY    74  61  63 N5        30.11R
DEL RIO        CLEAR     79  66  64 E7        30.04S
EL PASO        MOCLDY    73  63  70 N16       30.16S
HOUSTON INT    MOCLDY    79  76  90 CALM      30.06R
LUBBOCK        CLOUDY    67  56  67 E7        30.23R
SAN ANGELO     CLEAR     73  66  78 NE6       30.13S
SAN ANTONIO    PTCLDY    77  67  71 CALM      30.09R
WACO           PTCLDY    73  68  84 N3        30.09R
WICHITA FALLS  NOT AVBL
$$
...OTHER LOCATIONS IN NEW MEXICO...

CITY           SKY/WX    TMP DP  RH WIND       PRES   REMARKS
ALAMAGORDO     CLOUDY    72  64  78 NW9       30.21F
ALBUQUERQUE    CLOUDY    68  60  75 CALM      30.30S
CANNON AFB     DRIZZLE   66  64  94 SE8       30.28S
CLOVIS         NOT AVBL
HOLLOMAN AFB   DRIZZLE   70  70 100 N9        30.20S
ROSWELL        CLOUDY    71  67  87 SW3       30.22S
RUIDOSO        LGT RAIN  57  57 100 CALM      30.42S VSB 3/4
SANTA FE       CLOUDY    61  58  90 CALM      30.36S
TRUTH OR CONSE MOCLDY    68  60  75 E3        30.25R
TUCUMCARI      LGT RAIN  69  65  86 S5        30.24F
$$



USA.gov is the U.S. government's official web portal to all federal, state and local government web resources and services.